Tracking 18987 objects as of 25-Feb-2018
HD Live streaming from Space Station
objects crossing your sky now

FENGYUN 1C DEB

Track FENGYUN 1C DEB now!
10-day predictions


NORAD ID: 31774
Int'l Code: 1999-025CFZ
Perigee: 820.1 km
Apogee: 925.0 km
Inclination: 99.0 °
Period: 102.3 minutes
Semi major axis: 7243 km
RCS: 0.0108 m2 (small)
Launch date: May 10, 1999
Source: People's Republic of China (PRC)
Launch site: Taiyaun Space Center, China (TSC)

Note: This is SATELLITE DEBRIS
aabbcc
Your satellite tracking list
Your tracking list is empty




NASA's NSSDC Master Catalog

Two Line Element Set (TLE):
1 31774U 99025CFZ 18054.33504141  .00000745  00000-0  45109-3 0  9994
2 31774  98.9634  95.5767 0072408 354.2087   5.8238 14.08248261550868
Source of the keplerian elements: AFSPC